Location: Sungai Anya
(2.6167°N, 114.0500°E)
Time: 12:46:20
(UTC+00:00)

H-2A R/B - Pass Details

Date: 19 October 2021
Orbit: 733 x 837 km, 98.2° (Epoch: 28 November)

Event Time Altitude Azimuth Distance (km) Brightness Sun altitude
Rises 11:35:50 0° 190° (S) 3,243 5.5 -21.9°
Reaches altitude 10° 11:38:25 10° 201° (SSW) 2,332 4.9 -22.5°
Maximum altitude 11:42:45 28° 259° (WSW) 1,461 4.1 -23.6°
Drops below altitude 10° 11:47:11 10° 316° (NW) 2,383 4.9 -24.7°
Sets 11:49:52 0° 328° (NNW) 3,328 5.6 -25.3°
